Regional Weather Roundup
Issued by NWS Wakefield, VA

Home | Current Version | Previous Version | Graphics & Text | Print | Product List | Glossary On
Versions: 1 2 3 4 5 6 7 8 9 10 11 12 13 14 15 16 17 18 19 20 21 22 23 24 25 26 27 28 29 30 31 32 33 34 35 36 37 38 39 40 41 42 43 44 45 46 47 48 49
000
ASUS41 KAKQ 022315
RWRAKQ

REGIONAL WEATHER ROUNDUP
NATIONAL WEATHER SERVICE WAKEFIELD VA
700 PM EDT WED SEP 02 2015

Note: "fair" indicates few or no clouds below 12,000 feet with no
significant weather and/or obstructions to visibility. * = Denotes
station may not report precipitation (e.g., rain,snow,etc.),
thunder or fog.

VAZ042-051-052>054-056-030000-
NORTHERN VIRGINIA

CITY           SKY/WX    TMP DP  RH WIND       PRES   REMARKS
WASH NATIONAL  CLOUDY    87  67  51 NW7       29.93F
DULLES         CLOUDY    82  66  58 W8        29.94F
FORT BELVOIR   CLOUDY    80  72  76 W2        29.93F
QUANTICO       CLOUDY    83  69  62 W9G18     29.94F
FREDERICKSBRG* CLOUDY    79  67  68 W7        29.95F
STAFFORD*      CLOUDY    79  65  60 SW8       30.00S
WARRENTON      CLOUDY    78  70  77 CALM      29.95F
CULPEPER*      CLOUDY    74  68  80 N3        29.97S
MANASSAS*      CLEAR     81  70  69 SW5       29.95F
LEESBURG*      MOCLDY    84  72  65 NW3       29.95F
WINCHESTER     PTCLDY    77  68  73 SW5       29.97F
FRONT ROYAL*   FAIR      70  66  88 S6        29.97F
LURAY*         FAIR      70  66  88 CALM      30.00F
$$

VAZ048-049-060>072-079>083-030000-
CENTRAL AND SOUTH CENTRAL VIRGINIA

CITY           SKY/WX    TMP DP  RH WIND       PRES   REMARKS
RICHMOND       MOCLDY    79  69  71 S3        29.95S
CHESTERFIELD*  FAIR      82  61  47 NE3       29.96S THUNDER
PETERSBURG*    LGT RAIN  77  77  99 NE6       29.94F
HANOVER        MOCLDY    79  67  66 CALM      29.98R
TAPPAHANNOCK*  MOCLDY    77  71  80 CALM      29.96R
QUINTON*       FAIR      78  72  82 CALM      29.94R
CHARLOTTSVILLE MOCLDY    76  63  64 NW3       29.97F
GORDONSVILLE*  FAIR      80  63  57 CALM      29.97R
ORANGE*        CLOUDY    79  64  61 NE3       29.98S
LOUISA*        CLOUDY    81  68  65 E7        29.98R
BUMPASS*       CLOUDY    69  67  92 N6        29.99S
FARMVILLE*     RAIN      72  72  99 N3        29.97R
CREWE*         FAIR     N/A N/A N/A CALM      29.95S
FORT PICKETT*  MOCLDY    78  71  79 CALM      29.96S
CHASE CITY*    MOCLDY    85  72  64 CALM      29.94F
CLARKSVILLE*   CLOUDY    79  72  78 CALM      29.93F
SOUTH HILL*    MOCLDY    74  68  80 CALM      30.00F THUNDER
LAWRENCEVILLE* MOCLDY    72  72 100 E3        29.95S
EMPORIA*       TSTM      81  73  78 S8        29.97R
$$

VAZ088>098-030000-
SOUTHEAST VIRGINIA

CITY           SKY/WX    TMP DP  RH WIND       PRES   REMARKS
NORFOLK        CLOUDY    74  69  85 SW10      29.96S
VIRGINIA BEACH TSTM      78  70  76 SW10      29.95R
NORFOLK NAVAL  CLOUDY    73  68  84 S9        29.97S THUNDER
WEST POINT*    PTCLDY    79  73  84 CALM      29.95S
SALUDA*        FAIR      77  72  83 W5        29.94S
NEWPORT NEWS   CLOUDY    74  71  91 SW5       29.94S
LANGLEY AFB    CLOUDY    73  71  92 SW6       29.95R
FORT EUSTIS    PTCLDY    74  74 100 VRB2      29.93S
WILLIAMSBURG*  MOCLDY    77  75  94 CALM      29.95S
HR EXEC AP*      N/A     72  66  83 SE6       30.00R
FRANKLIN*      LGT RAIN  73  69  88 SE9       29.95F
WAKEFIELD      CLOUDY    80  68  66 VRB3      29.95R
$$

VAZ020-022-025-037-045-030000-
WEST CENTRAL AND SOUTHWEST VIRGINIA

CITY           SKY/WX    TMP DP  RH WIND       PRES   REMARKS
STAUNTON*      PTCLDY    79  64  59 CALM      30.04F
WAYNESBORO*    FAIR      72  67  83 S5        30.03F
HOT SPRINGS VA PTCLDY    72  60  67 N9        30.17R
LYNCHBURG      PTCLDY    77  61  57 N12G20    30.00R
DANVILLE       PTCLDY    89  68  49 W9        29.95F
SOUTH BOSTON*  MOCLDY    85  66  52 N9        29.95R
MARTINSVILLE   CLEAR     84  68  58 CALM      30.01S
ROANOKE        PTCLDY    86  58  38 NW7       30.02S
BLACKSBURG     CLEAR     82  65  57 NW3       30.10R
DUBLIN*        MOCLDY    83  65  53 CALM      30.08S
MARION*        CLEAR     81  63  55 NW3       30.13R
HILLSVILLE*    CLEAR     80  64  58 NW3       30.10S
RICHLANDS*     FAIR      79  23  12 NW5       30.12S
WISE*          SUNNY     81  59  47 NW5       30.14S
ABINGDON*      SUNNY     83  61  47 CALM      30.08S
$$

MDZ021>025-VAZ099-100-030000-
SOUTHERN MARYLAND AND THE DELMARVA PENINSULA

CITY           SKY/WX    TMP DP  RH WIND       PRES   REMARKS
PATUXENT RIVER MOCLDY    81  72  74 SW7       29.92F
BAY BRIDGE APT   N/A     82  70  65 SW3       29.91F
LEONARDTOWN    NOT AVBL
DOVER          PTCLDY    80  74  82 SE6       29.90F
GEORGETOWN     PTCLDY    83  70  64 S5        29.92F
EASTON         NOT AVBL
CAMBRIDGE      MOCLDY    81  70  69 CALM      29.91F
SALISBURY      PTCLDY    81  73  76 S6        29.92S
OCEAN CITY     CLOUDY    81  67  62 VRB3      29.92F
WALLOPS ISLAND MOCLDY    81  77  88 S7        29.93F
ACCOMACK*      CLOUDY    79  79 100 CALM      29.94S
$$

NCZ012>017-030>032-030000-
NORTH CENTRAL AND EASTERN NORTH CAROLINA

CITY           SKY/WX    TMP DP  RH WIND       PRES   REMARKS
ROANOKE RAPIDS FAIR      84  72  65 S3        29.93F
RALEIGH        PTCLDY    85  68  56 W3        29.95S
ELIZABETH CITY MOCLDY    79  71  76 N3        29.96S
AHOSKIE*       PTCLDY    84  70  63 CALM      29.93F
EDENTON*       MOCLDY    85  73  68 CALM      29.94S
CURRITUCK*     RAIN      74  70  88 CALM      29.96F
KILL DEVIL HLS MOCLDY    83  70  65 CALM      29.94S
MANTEO         MOCLDY    81  74  78 S7        29.95F
CAPE HATTERAS  PTCLDY    81  70  69 CALM      29.95F
TARBORO*       FAIR      86  71  61 CALM      29.94F
GOLDSBORO      NOT AVBL
WASHINGTON     CLEAR     85  71  63 SE5       29.94S
GREENVILLE     PTCLDY    86  72  62 CALM      29.96S
NEW BERN       CLEAR     86  72  62 S3        29.95F
WILMINGTON     PTCLDY    85  74  69 S7        29.94F
$$

VAZ048-030000-
ELSEWHERE

CITY           SKY/WX    TMP DP  RH WIND       PRES   REMARKS
HARRISBURG PA  PTCLDY    84  71  65 CALM      29.91F
BALTIMORE      CLOUDY    84  64  50 W9        29.91F THUNDER
ANNAPOLIS      MOCLDY    84  72  67 CALM      29.90F
ANDREWS AFB    CLOUDY    86  68  54 W7        29.92F
PHILADELPHIA   PTCLDY    90  61  37 SW12      29.90F
HENDERSON NC   CLEAR     83  70  63 S3        29.94F
GREENSBORO     MOCLDY    87  62  43 W6        29.98S
ROCKY MOUNT    PTCLDY    90  69  50 SW7       29.94S
$$

VAZ100-030000-
MARINE

STATION/POSITION TIME  TEMP    WIND        PRES    WAVE   SWELL
                       AIR SEA DIR/SP/G            HT/PER HT/PER
                 (UTC) (F)     (DEG/KT/KT) (MB)    (FT/S) (FT/S)
BRANDYWINE LGT   2200   76 77  180/  8/ 10 1013.6F
CAPE MAY NJ      2200   78 81  150/  5/  6 1013.2F
LEWES DE         2200   81 77  140/  5/  7 1013.3F
15NM E FENWICK I 2250   80 80  180/  4/  4 1013.4F   1/14   2/14
OCEAN-CITY-INLET 2200   81 79  210/  5/  6 1012.7F
THOMAS POINT MD  2200   82 80  220/ 10/ 10 1013.9
GOOSES REEF MD   2300   83 81  220/  4/  6 1014.0F
COVE POINT MD    2200   84     220/  2/  3 1014.1F
SOLOMONS ISLAND  2200      82                N/A
BISHOPS HEAD MD  2200   82 83  250/  5/  5 1012.5F
PINEY POINT MD   2205          240/  5/  5   N/A
POTOMAC MD       2300   82 81  240/  8/  8 1012.2F
CAMBRIDGE MD     2200   86 81  310/  3/  4 1012.5F
LEWISETTA VA     2200   82 82  220/  5/  5 1013.4F
RAPPAHANNOCK LGT 2200          280/  5/  6 1014.4F
STINGRAY PT      2300   81 80  240/  6/  8 1014.2S   0
YORK RVR RNG VA  2200   78     230/ 13/ 15 1013.8F
YORKTOWN VA      2200   76 81  170/ 11/ 13 1013.9F
JAMESTOWN VA     2300   77 82  200/  6/  8   N/A
DOMINION TERM VA 2200   71      80/  8/ 11 1013.6F
KIPTOPEKE VA     2200      80  220/ 11/ 15   N/A
CHES BAY BRIDGE  2200   78 80  240/ 16/ 20 1014.1R
CAPE HENRY VA    2200   79     210/  8/ 11   N/A
CHESAPEAKE LGHT  2200   78     210/ 18/ 19 1014.2F
WILLOUBY STN VA  2200   74     230/  5/  7 1015.2R
CAPE HENRY BUOY  2228      80                N/A     2/ 3
1ST LANDING BUOY 2300      80              1014.2R   1/ 2
CAPE CHARLES BUO 2226      80                N/A     2/ 3   2/ 9
OFFSHORE WE BUOY 2211      80                N/A     2/10   2/10
64NM E OF VA BCH 2250   80 81  210/  8/ 10 1013.5F   2/14   2/14
DUCK PIER NC     2200   82 80  150/  8/  9 1013.5F
44100 DUCK FRF   2224      80                N/A     1/14
44056 DUCK FRF   2211      81                N/A     1/ 9
OREGON INLET NC  2200   82 81  190/  6/  7 1014.7F
HATTERAS NC      2200   84 83  170/  3/  4 1014.5F
DIAMOND SHLS NC  2250   82 86  310/  2/  4 1014.3F   2/ 6   2/ 6
CAPE LOOKOUT NC  2300   82     180/  4/  5 1014.1F
$$



USA.gov is the U.S. government's official web portal to all federal, state and local government web resources and services.